Regional Weather Roundup
Issued by NWS

Home | Current Version | Previous Version | Graphics & Text | Print | Product List | Glossary On
Versions: 1 2 3 4 5 6 7 8 9 10 11 12 13 14 15 16 17 18 19 20 21 22 23 24 25 26 27 28 29 30 31 32 33 34 35 36 37 38 39 40 41 42 43 44 45 46 47 48 49 50
000
ASUS43 KTOP 240308
RWRKS

WEATHER ROUNDUP FOR KANSAS
NATIONAL WEATHER SERVICE GOODLAND KS
1000 PM CDT WED APR 23 2014

NOTE:  "FAIR" INDICATES FEW OR NO CLOUDS BELOW 12,000 FEET WITH NO
SIGNIFICANT WEATHER AND/OR OBSTRUCTIONS TO VISIBILITY.

KSZ001>006-013>018-027>032-041>047-240400-
NORTHWEST KANSAS

CITY           SKY/WX    TMP DP  RH WIND       PRES   REMARKS
GOODLAND       MOCLDY    57  29  34 N32G45    29.69R
HAYS           PTCLDY    72  54  53 S35G44    29.46S
HILL CITY      CLOUDY    61  54  77 NE15      29.53R THUNDER
RUSSELL        MOCLDY    73  51  46 S33G43    29.46S
$$

KSZ061>065-074>080-084>089-240400-
SOUTHWEST KANSAS

CITY           SKY/WX    TMP DP  RH WIND       PRES   REMARKS
DODGE CITY     CLEAR     68  54  60 S23G33    29.55R
ELKHART          N/A     72  21  14 SW12        N/A
GARDEN CITY    CLEAR     69  51  52 S21G38    29.50R
GREAT BEND     MOCLDY    72  52  49 S29G38    29.52R
LIBERAL        CLEAR     66  50  55 SE25G33   29.57R
PRATT          CLOUDY    72  48  43 SE8       29.60S
$$

KSZ066>073-081>083-090>101-240400-
SOUTHEAST KANSAS

CITY           SKY/WX    TMP DP  RH WIND       PRES   REMARKS
CHANUTE        CLOUDY    73  52  47 S21G28    29.72R
COFFEYVILLE    CLOUDY    72  55  55 S14       29.74R
HUTCHINSON     CLOUDY    77  49  37 W7G20     29.65R
MEDICINE LODGE   N/A     73  51  46 S25G38    29.56R
NEWTON         CLOUDY    75  46  35 S23G36    29.66R
PARSONS        CLOUDY    73  54  51 S13G23    29.73S
WICHITA INTL   CLOUDY    77  52  41 S33G46    29.59S
WICHITA JABRA  CLOUDY    76  53  44 S29G43    29.60S
WICHITA MCCONL CLOUDY    76  53  45 SE35G47   29.62R
WINFIELD       CLOUDY    76  55  48 S33G46    29.66R
$$

KSZ007>012-019>026-033>040-048>060-102>105-240400-
NORTHEAST KANSAS

CITY           SKY/WX    TMP DP  RH WIND       PRES   REMARKS
CONCORDIA      CLOUDY    76  47  35 S21G37    29.50F
EMPORIA        CLOUDY    73  51  46 S25G38    29.64R
LAWRENCE       PTCLDY    71  47  42 SE16      29.68R
MANHATTAN      CLOUDY    75  53  46 S26G35    29.59R
OLATHE IND     MOCLDY    70  42  36 SE16G28   29.71R
OLATHE EXE     MOCLDY    69  41  36 S20G35    29.69R
SALINA         CLOUDY    78  48  34 S31G49    29.52F
TOPEKA BILLARD MOCLDY    76  46  34 SE14      29.65R
TOPEKA FORBES  MOCLDY    74  47  38 SE21G29   29.65R
$$



USA.gov is the U.S. government's official web portal to all federal, state and local government web resources and services.